Windom, MN

10:28 AM CST on December 14, 2017 (GMT -0600)
Windom Municipal

Weather History for KMWM - December, 2013

Change the Weather History Date:

Wednesday, December 25, 2013

  Actual Average Record
Temperature  
Mean Temperature 22 °F -  
Max Temperature 30 °F 21 °F 48 °F (1999)
Min Temperature 14 °F 3 °F -27 °F (1983)
Degree Days  
Heating Degree Days 43    
Moisture  
Dew Point 19 °F    
Average Humidity 88    
Maximum Humidity 93    
Minimum Humidity 80    
Precipitation  
Precipitation 0.00 in - - ()
Sea Level Pressure  
Sea Level Pressure 30.10 in    
Wind  
Wind Speed 12 mph (West)    
Max Wind Speed 24 mph    
Max Gust Speed 30 mph    
Visibility 8 miles    
Events Snow    
Averages and records for this station are not official NWS values.
T = Trace of Precipitation, MM = Missing Value Source: NWS Daily Summary

Daily Weather History Graph

Daily Weather History Graph

Search for Another Location

Airport or City:

Trip Planner

Search our weather history database for the weather conditions in past years. The results will help you decide how hot, cold, wet, or windy it might be!

Date:

Astronomy

Dec. 25, 2013 Rise Set
Actual Time 7:53 AM CST 4:48 PM CST
Civil Twilight 7:20 AM CST 5:21 PM CST
Nautical Twilight 6:43 AM CST 5:57 PM CST
Astronomical Twilight 6:08 AM CST 6:32 PM CST
Moon 12:10 AM CST (12/25) 12:02 PM CST (12/25)
Length of Visible Light 10h 00m
Length of Day
8h 54m
Waning Gibbous, 48% of the Moon is Illuminated
Dec 25
Waning Gibbous
Jan 1
New
Jan 7
First Quarter
Jan 15
Full
Jan 23
Last Quarter

Hourly Weather History & Observations

Time (CST) Temp. Windchill Dew Point Humidity Pressure Visibility Wind Dir Wind Speed Gust Speed Precip Events Conditions
2:01 AM 19.4 °F 10.4 °F 15.8 °F 86% 30.07 in 10.0 mi SW 6.9 mph - N/A   Overcast
2:21 AM 19.4 °F 9.5 °F 15.8 °F 86% 30.07 in 10.0 mi SW 8.1 mph - N/A   Overcast
3:01 AM 19.4 °F 8.6 °F 15.8 °F 86% 30.07 in 10.0 mi SW 9.2 mph - N/A   Overcast
3:41 AM 19.4 °F 6.6 °F 17.6 °F 93% 30.07 in 10.0 mi SW 12.7 mph 17.3 mph N/A   Overcast
4:31 AM 21.2 °F 8.3 °F 17.6 °F 86% 30.05 in 10.0 mi SW 13.8 mph - N/A   Mostly Cloudy
4:32 AM 21.2 °F 7.8 °F 17.6 °F 86% 30.04 in 10.0 mi SW 15.0 mph 19.6 mph N/A   Mostly Cloudy
4:53 AM 21.2 °F 8.3 °F 19.4 °F 93% 30.04 in 4.0 mi SW 13.8 mph - N/A Snow Light Snow
5:13 AM 21.2 °F 7.3 °F 19.4 °F 93% 30.04 in 2.0 mi SW 16.1 mph 23.0 mph N/A Snow Light Snow
5:32 AM 21.2 °F 7.8 °F 19.4 °F 93% 30.03 in 1.5 mi SW 15.0 mph - N/A Snow Light Snow
5:53 AM 21.2 °F 7.8 °F 19.4 °F 93% 30.03 in 3.0 mi SW 15.0 mph - N/A Snow Light Snow
6:13 AM 23.0 °F 10.1 °F 21.2 °F 93% 30.02 in 2.0 mi SW 15.0 mph - N/A Snow Light Snow
6:32 AM 23.0 °F 10.6 °F 21.2 °F 93% 30.03 in 2.5 mi SW 13.8 mph 20.7 mph N/A Snow Light Snow
6:53 AM 23.0 °F 10.6 °F 21.2 °F 93% 30.03 in 7.0 mi SW 13.8 mph - N/A Snow Light Snow
7:13 AM 23.0 °F 10.6 °F 21.2 °F 93% 30.03 in 7.0 mi SW 13.8 mph - N/A Snow Light Snow
7:32 AM 23.0 °F 11.1 °F 21.2 °F 93% 30.04 in 2.5 mi SW 12.7 mph - N/A Snow Light Snow
7:53 AM 23.0 °F 12.4 °F 21.2 °F 93% 30.05 in 1.0 mi WSW 10.4 mph - N/A Snow Snow
8:13 AM 23.0 °F 11.7 °F 21.2 °F 93% 30.05 in 1.0 mi WSW 11.5 mph - N/A Snow Light Snow
8:32 AM 24.8 °F 13.4 °F 21.2 °F 86% 30.05 in 2.0 mi WSW 12.7 mph - N/A Snow Light Snow
8:53 AM 24.8 °F 14.0 °F 21.2 °F 86% 30.06 in 1.5 mi West 11.5 mph - N/A Snow Light Snow
9:12 AM 24.8 °F 13.4 °F 23.0 °F 93% 30.06 in 1.5 mi WSW 12.7 mph - N/A Snow Light Snow
9:32 AM 24.8 °F 15.3 °F 23.0 °F 93% 30.06 in 3.0 mi West 9.2 mph - N/A Snow Light Snow
9:53 AM 26.6 °F 17.5 °F 23.0 °F 86% 30.07 in 10.0 mi West 9.2 mph - N/A   Overcast
10:12 AM 26.6 °F 15.7 °F 24.8 °F 93% 30.08 in 10.0 mi West 12.7 mph - N/A   Overcast
10:32 AM 28.4 °F 17.0 °F 26.6 °F 93% 30.09 in 10.0 mi West 15.0 mph - N/A   Overcast
10:53 AM 30.2 °F 20.2 °F 26.6 °F 86% 30.09 in 10.0 mi West 12.7 mph - N/A   Overcast
11:12 AM 30.2 °F 19.3 °F 26.6 °F 86% 30.10 in 10.0 mi WNW 15.0 mph - N/A   Overcast
11:32 AM 30.2 °F 18.5 °F 26.6 °F 86% 30.10 in 10.0 mi WNW 17.3 mph - N/A   Overcast
11:53 AM 30.2 °F 16.5 °F 26.6 °F 86% 30.09 in 4.0 mi NW 24.2 mph 27.6 mph N/A   Overcast
12:12 PM 28.4 °F 15.4 °F 24.8 °F 86% 30.10 in 7.0 mi NW 19.6 mph - N/A   Overcast
12:32 PM 28.4 °F 15.8 °F 24.8 °F 86% 30.10 in 10.0 mi NW 18.4 mph 24.2 mph N/A   Overcast
12:53 PM 26.6 °F 13.1 °F 23.0 °F 86% 30.11 in 7.0 mi NW 19.6 mph 29.9 mph N/A   Overcast
1:12 PM 26.6 °F 13.4 °F 23.0 °F 86% 30.11 in 10.0 mi NW 18.4 mph - N/A   Overcast
1:33 PM 26.6 °F 13.1 °F 23.0 °F 86% 30.11 in 10.0 mi NW 19.6 mph 24.2 mph N/A   Overcast
1:53 PM 26.6 °F 13.4 °F 21.2 °F 80% 30.11 in 10.0 mi NW 18.4 mph - N/A   Mostly Cloudy
2:12 PM 26.6 °F 13.4 °F 21.2 °F 80% 30.12 in 10.0 mi NNW 18.4 mph - N/A   Scattered Clouds
2:33 PM 24.8 °F 11.1 °F 21.2 °F 86% 30.13 in 10.0 mi NW 18.4 mph - N/A   Mostly Cloudy
2:53 PM 24.8 °F 14.6 °F 21.2 °F 86% 30.13 in 10.0 mi WNW 10.4 mph - N/A   Overcast
3:12 PM 24.8 °F 12.4 °F 19.4 °F 80% 30.14 in 10.0 mi NW 15.0 mph - N/A   Overcast
3:33 PM 21.2 °F 8.9 °F 19.4 °F 93% 30.14 in 10.0 mi NW 12.7 mph - N/A Snow Light Snow
3:53 PM 21.2 °F 10.1 °F 17.6 °F 86% 30.15 in 10.0 mi WNW 10.4 mph - N/A   Mostly Cloudy
4:12 PM 19.4 °F 7.9 °F 17.6 °F 93% 30.15 in 10.0 mi WNW 10.4 mph - N/A   Scattered Clouds
4:33 PM 17.6 °F 5.0 °F 15.8 °F 93% 30.15 in 10.0 mi West 11.5 mph - N/A   Clear
4:53 PM 17.6 °F 3.2 °F 14.0 °F 86% 30.15 in 10.0 mi West 15.0 mph - N/A   Clear
5:12 PM 15.8 °F 2.1 °F 12.2 °F 86% 30.15 in 10.0 mi West 12.7 mph - N/A   Clear
5:33 PM 14.0 °F 2.0 °F 10.4 °F 86% 30.16 in 10.0 mi West 9.2 mph - N/A   Clear
5:52 PM 14.0 °F 2.0 °F 10.4 °F 86% 30.16 in 10.0 mi West 9.2 mph - N/A   Scattered Clouds
6:13 PM 17.6 °F 5.7 °F 14.0 °F 86% 30.16 in 10.0 mi West 10.4 mph - N/A   Overcast
6:32 PM 19.4 °F 7.2 °F 15.8 °F 86% 30.16 in 10.0 mi West 11.5 mph - N/A   Overcast
6:52 PM 19.4 °F 7.9 °F 15.8 °F 86% 30.16 in 10.0 mi West 10.4 mph - N/A   Overcast
7:13 PM 19.4 °F 7.9 °F 15.8 °F 86% 30.15 in 10.0 mi West 10.4 mph - N/A   Overcast
7:32 PM 19.4 °F 7.2 °F 15.8 °F 86% 30.15 in 10.0 mi West 11.5 mph - N/A   Overcast
7:52 PM 19.4 °F 9.5 °F 15.8 °F 86% 30.15 in 10.0 mi West 8.1 mph - N/A   Overcast
8:13 PM 19.4 °F 6.6 °F 17.6 °F 93% 30.15 in 10.0 mi West 12.7 mph - N/A   Overcast
8:32 PM 19.4 °F 6.6 °F 15.8 °F 86% 30.14 in 10.0 mi WSW 12.7 mph - N/A   Overcast
8:52 PM 19.4 °F 8.6 °F 17.6 °F 93% 30.14 in 10.0 mi WSW 9.2 mph - N/A   Overcast
9:12 PM 19.4 °F 6.6 °F 17.6 °F 93% 30.13 in 10.0 mi WSW 12.7 mph - N/A   Mostly Cloudy
9:32 PM 19.4 °F 8.6 °F 15.8 °F 86% 30.12 in 10.0 mi WSW 9.2 mph - N/A   Mostly Cloudy
9:53 PM 19.4 °F 8.6 °F 17.6 °F 93% 30.12 in 10.0 mi WSW 9.2 mph - N/A   Overcast
10:12 PM 21.2 °F 10.1 °F 17.6 °F 86% 30.11 in 10.0 mi WSW 10.4 mph - N/A   Overcast
10:32 PM 21.2 °F 10.1 °F 17.6 °F 86% 30.12 in 10.0 mi SW 10.4 mph - N/A   Overcast
10:53 PM 21.2 °F 10.9 °F 17.6 °F 86% 30.11 in 10.0 mi WSW 9.2 mph - N/A   Overcast
11:12 PM 21.2 °F 11.7 °F 17.6 °F 86% 30.11 in 10.0 mi SW 8.1 mph - N/A   Overcast
11:32 PM 21.2 °F 12.6 °F 17.6 °F 86% 30.10 in 10.0 mi SW 6.9 mph - N/A   Overcast
11:52 PM 21.2 °F 12.6 °F 17.6 °F 86% 30.10 in 10.0 mi SW 6.9 mph - N/A   Overcast